H1 CPF 2 NER 2023 10 7 9 280 01 glonass134 H2 1407501 9134 40315 2023 10 7 0 0 0 2023 10 10 23 45 0 900 1 1 0 0 0 1 H9 10 0 60224 0.00000 0 22657062.393 7637809.706 8793836.737 10 0 60224 900.00000 0 23492551.355 7974755.300 5770270.425 10 0 60224 1800.00000 0 24000656.346 8101904.791 2634126.740 10 0 60224 2700.00000 0 24148691.810 8062433.983 -553428.836 10 0 60224 3600.00000 0 23915579.996 7905607.703 -3730174.427 10 0 60224 4500.00000 0 23292830.369 7684442.253 -6834066.058 10 0 60224 5400.00000 0 22285003.616 7453212.659 -9804470.970 10 0 60224 6300.00000 0 20909639.148 7264912.953 -12583373.552 10 0 60224 7200.00000 0 19196648.446 7168779.853 -15116528.020 10 0 60224 8100.00000 0 17187199.788 7207987.413 -17354533.332 10 0 60224 9000.00000 0 14932142.002 7417612.547 -19253807.798 10 0 60224 9900.00000 0 12490034.726 7822959.242 -20777443.339 10 0 60224 10800.00000 0 9924869.288 8438313.337 -21895922.432 10 0 60224 11700.00000 0 7303577.204 9266180.765 -22587684.066 10 0 60224 12600.00000 0 4693431.749 10297041.039 -22839528.523 10 0 60224 13500.00000 0 2159451.860 11509625.444 -22646854.510 10 0 60224 14400.00000 0 -238083.292 12871706.963 -22013725.659 10 0 60224 15300.00000 0 -2445906.159 14341367.293 -20952766.959 10 0 60224 16200.00000 0 -4419726.016 15868686.334 -19484895.004 10 0 60224 17100.00000 0 -6125807.905 17397782.116 -17638889.017 10 0 60224 18000.00000 0 -7542102.391 18869114.789 -15450812.546 10 0 60224 18900.00000 0 -8658882.260 20221957.797 -12963298.273 10 0 60224 19800.00000 0 -9478863.028 21396932.860 -10224710.697 10 0 60224 20700.00000 0 -10016805.488 22338503.201 -7288203.492 10 0 60224 21600.00000 0 -10298619.953 22997321.662 -4210689.970 10 0 60224 22500.00000 0 -10360012.133 23332336.697 -1051746.390 10 0 60224 23400.00000 0 -10244729.256 23312569.515 2127531.130 10 0 60224 24300.00000 0 -10002481.090 22918489.424 5265694.822 10 0 60224 25200.00000 0 -9686623.564 22142930.981 8302117.086 10 0 60224 26100.00000 0 -9351702.024 20991515.425 11178144.559 10 0 60224 27000.00000 0 -9050956.627 19482559.034 13838213.592 10 0 60224 27900.00000 0 -8833893.651 17646471.875 16230907.164 10 0 60224 28800.00000 0 -8744023.673 15524671.062 18309934.302 10 0 60224 29700.00000 0 -8816860.687 13168052.169 20035014.520 10 0 60224 30600.00000 0 -9078265.616 10635080.302 21372651.362 10 0 60224 31500.00000 0 -9543203.823 7989577.757 22296780.890 10 0 60224 32400.00000 0 -10214969.414 5298297.557 22789282.943 10 0 60224 33300.00000 0 -11084910.350 2628381.036 22840345.098 10 0 60224 34200.00000 0 -12132667.969 44802.810 22448671.557 10 0 60224 35100.00000 0 -13326923.475 -2392092.597 21621531.606 10 0 60224 36000.00000 0 -14626622.997 -4628861.343 20374644.980 10 0 60224 36900.00000 0 -15982632.705 -6620944.126 18731904.202 10 0 60224 37800.00000 0 -17339757.111 -8334280.608 16724937.017 10 0 60224 38700.00000 0 -18639037.838 -9746486.390 14392515.112 10 0 60224 39600.00000 0 -19820237.444 -10847542.288 11779818.578 10 0 60224 40500.00000 0 -20824404.130 -11639965.866 8937568.779 10 0 60224 41400.00000 0 -21596408.673 -12138456.940 5921045.467 10 0 60224 42300.00000 0 -22087345.147 -12369031.202 2789006.981 10 0 60224 43200.00000 0 -22256691.967 -12367678.280 -397465.018 10 0 60224 44100.00000 0 -22074139.443 -12178601.371 -3576172.633 10 0 60224 45000.00000 0 -21521003.968 -11852114.004 -6685035.346 10 0 60224 45900.00000 0 -20591166.621 -11442284.811 -9663323.948 10 0 60224 46800.00000 0 -19291494.535 -11004432.337 -12452868.370 10 0 60224 47700.00000 0 -17641725.876 -10592578.628 -14999213.522 10 0 60224 48600.00000 0 -15673822.681 -10256972.059 -17252698.514 10 0 60224 49500.00000 0 -13430818.884 -10041786.641 -19169436.625 10 0 60224 50400.00000 0 -10965212.718 -9983097.037 -20712175.859 10 0 60224 51300.00000 0 -8336972.133 -10107216.094 -21851022.937 10 0 60224 52200.00000 0 -5611238.081 -10429465.601 -22564016.907 10 0 60224 53100.00000 0 -2855823.030 -10953431.845 -22837542.034 10 0 60224 54000.00000 0 -138610.075 -11670736.464 -22666573.259 10 0 60224 54900.00000 0 2475038.553 -12561330.809 -22054751.132 10 0 60224 55800.00000 0 4924755.879 -13594299.777 -21014286.548 10 0 60224 56700.00000 0 7157425.538 -14729139.536 -19565699.036 10 0 60224 57600.00000 0 9129126.047 -15917453.864 -17737395.404 10 0 60224 58500.00000 0 10806685.481 -17104996.545 -15565098.487 10 0 60224 59400.00000 0 12168784.753 -18233973.224 -13091138.324 10 0 60224 60300.00000 0 13206566.776 -19245505.773 -10363620.433 10 0 60224 61200.00000 0 13923729.344 -20082155.919 -7435487.883 10 0 60224 62100.00000 0 14336100.995 -20690402.912 -4363495.540 10 0 60224 63000.00000 0 14470720.300 -21022972.298 -1207116.153 10 0 60224 63900.00000 0 14364459.281 -21040919.388 1972600.974 10 0 60224 64800.00000 0 14062250.107 -20715381.368 5114197.485 10 0 60224 65700.00000 0 13614990.224 -20028925.763 8156978.138 10 0 60224 66600.00000 0 13077213.835 -18976439.667 11042166.261 10 0 60224 67500.00000 0 12504626.985 -17565522.864 13714021.622 10 0 60224 68400.00000 0 11951608.711 -15816368.196 16120900.684 10 0 60224 69300.00000 0 11468781.999 -13761133.283 18216240.268 10 0 60224 70200.00000 0 11100755.269 -11442828.255 19959447.044 10 0 60224 71100.00000 0 10884128.197 -8913763.700 21316676.860 10 0 60224 72000.00000 0 10845844.980 -6233620.837 22261489.649 10 0 60224 72900.00000 0 11001964.179 -3467221.310 22775367.649 10 0 60224 73800.00000 0 11356897.450 -682086.359 22848086.750 10 0 60224 74700.00000 0 11903150.497 2054115.913 22477933.081 10 0 60224 75600.00000 0 12621579.138 4676131.454 21671759.375 10 0 60224 76500.00000 0 13482152.152 7123584.657 20444878.268 10 0 60224 77400.00000 0 14445191.512 9343244.710 18820792.530 10 0 60224 78300.00000 0 15463040.414 11290999.864 16830765.141 10 0 60224 79200.00000 0 16482091.108 12933456.903 14513235.288 10 0 60224 80100.00000 0 17445088.683 14249098.077 11913089.555 10 0 60224 81000.00000 0 18293614.436 15228945.883 9080800.851 10 0 60224 81900.00000 0 18970643.849 15876706.534 6071450.750 10 0 60224 82800.00000 0 19423070.064 16208385.007 2943653.933 10 0 60224 83700.00000 0 19604084.350 16251387.270 -241593.890 10 0 60224 84600.00000 0 19475310.453 16043147.526 -3422121.090 10 0 60224 85500.00000 0 19008599.833 15629339.152 -6535812.984 10 0 60225 0.00000 0 18187409.241 15061746.436 -9521846.049 10 0 60225 900.00000 0 17007699.472 14395888.796 -12321898.665 10 0 60225 1800.00000 0 15478316.605 13688501.229 -14881308.418 10 0 60225 2700.00000 0 13620836.990 12994979.126 -17150156.694 10 0 60225 3600.00000 0 11468883.042 12366898.681 -19084253.716 10 0 60225 4500.00000 0 9066938.451 11849719.513 -20646005.377 10 0 60225 5400.00000 0 6468713.390 11480767.977 -21805144.287 10 0 60225 6300.00000 0 3735129.299 11287587.002 -22539311.025 10 0 60225 7200.00000 0 932008.760 11286721.931 -22834475.086 10 0 60225 8100.00000 0 -1872432.015 11482992.656 -22685188.629 10 0 60225 9000.00000 0 -4610182.915 11869281.248 -22094669.767 10 0 60225 9900.00000 0 -7216023.452 12426842.098 -21074715.554 10 0 60225 10800.00000 0 -9629983.167 13126119.443 -19645448.275 10 0 60225 11700.00000 0 -11799577.885 13928035.837 -17834901.702 10 0 60225 12600.00000 0 -13681730.703 14785695.576 -15678456.910 10 0 60225 13500.00000 0 -15244300.362 15646430.070 -13218139.874 10 0 60225 14400.00000 0 -16467156.250 16454098.290 -10501795.401 10 0 60225 15300.00000 0 -17342758.348 17151545.293 -7582153.979 10 0 60225 16200.00000 0 -17876220.980 17683115.680 -4515809.856 10 0 60225 17100.00000 0 -18084860.545 17997117.065 -1362129.960 10 0 60225 18000.00000 0 -17997248.462 18048131.037 1817885.648 10 0 60225 18900.00000 0 -17651810.752 17799075.738 4962770.548 10 0 60225 19800.00000 0 -17095033.976 17222934.596 8011764.473 10 0 60225 20700.00000 0 -16379353.074 16304079.624 10905970.117 10 0 60225 21600.00000 0 -15560809.374 15039134.344 13589473.377 10 0 60225 22500.00000 0 -14696576.120 13437340.133 16010406.906 10 0 60225 23400.00000 0 -13842454.079 11520409.999 18121937.963 10 0 60225 24300.00000 0 -13050440.852 9321874.507 19883162.900 10 0 60225 25200.00000 0 -12366474.440 6885945.081 21259892.202 10 0 60225 26100.00000 0 -11828444.650 4265939.450 22225311.759 10 0 60225 27000.00000 0 -11464555.082 1522331.838 22760507.972 10 0 60225 27900.00000 0 -11292104.400 -1279494.204 22854846.448 10 0 60225 28800.00000 0 -11316738.674 -4071699.897 22506196.225 10 0 60225 29700.00000 0 -11532207.487 -6786553.023 21720993.994 10 0 60225 30600.00000 0 -11920635.893 -9358993.078 20514145.334 10 0 60225 31500.00000 0 -12453303.018 -11729094.553 18908762.784 10 0 60225 32400.00000 0 -13091896.856 -13844326.491 16935743.585 10 0 60225 33300.00000 0 -13790194.557 -15661514.060 14633192.951 10 0 60225 34200.00000 0 -14496099.095 -17148419.501 12045702.050 10 0 60225 35100.00000 0 -15153947.359 -18284875.113 9223493.028 10 0 60225 36000.00000 0 -15706992.372 -19063419.404 6221446.629 10 0 60225 36900.00000 0 -16099953.975 -19489408.280 3098030.970 10 0 60225 37800.00000 0 -16281528.506 -19580595.567 -85847.324 10 0 60225 38700.00000 0 -16206749.019 -19366200.018 -3268046.177 10 0 60225 39600.00000 0 -15839093.424 -18885498.314 -6386420.133 10 0 60225 40500.00000 0 -15152248.479 -18186004.389 -9380055.340 10 0 60225 41400.00000 0 -14131452.274 -17321313.601 -12190480.986 10 0 60225 42300.00000 0 -12774356.161 -16348704.970 -14762831.230 10 0 60225 43200.00000 0 -11091367.994 -15326605.230 -17046932.877 10 0 60225 44100.00000 0 -9105461.213 -14312024.276 -18998295.916 10 0 60225 45000.00000 0 -6851457.480 -13358072.443 -20578986.518 10 0 60225 45900.00000 0 -4374813.383 -12511666.028 -21758365.022 10 0 60225 46800.00000 0 -1729962.815 -11811518.699 -22513674.770 10 0 60225 47700.00000 0 1021714.495 -11286503.566 -22830471.075 10 0 60225 48600.00000 0 3814212.368 -10954454.111 -22702883.283 10 0 60225 49500.00000 0 6579407.951 -10821453.024 -22133706.460 10 0 60225 50400.00000 0 9249656.803 -10881636.827 -21134322.706 10 0 60225 51300.00000 0 11760365.507 -11117522.137 -19724455.521 10 0 60225 52200.00000 0 14052435.537 -11500837.395 -17931763.725 10 0 60225 53100.00000 0 16074478.174 -11993822.746 -15791284.393 10 0 60225 54000.00000 0 17784710.380 -12550941.411 -13344736.914 10 0 60225 54900.00000 0 19152455.227 -13120929.084 -10639702.587 10 0 60225 55800.00000 0 20159187.159 -13649094.208 -7728696.299 10 0 60225 56700.00000 0 20799081.425 -14079772.040 -4668148.495 10 0 60225 57600.00000 0 21079047.517 -14358829.505 -1517317.005 10 0 60225 58500.00000 0 21018247.630 -14436116.148 1662850.633 10 0 60225 59400.00000 0 20647122.238 -14267759.069 4810883.114 10 0 60225 60300.00000 0 20005964.833 -13818206.475 7865958.105 10 0 60225 61200.00000 0 19143106.125 -13061934.953 10769060.336 10 0 60225 62100.00000 0 18112783.647 -11984749.482 13464104.130 10 0 60225 63000.00000 0 16972785.315 -10584621.869 15899000.239 10 0 60225 63900.00000 0 15781964.437 -8872032.029 18026647.848 10 0 60225 64800.00000 0 14597728.787 -6869796.737 19805834.069 10 0 60225 65700.00000 0 13473607.284 -4612391.121 21202024.729 10 0 60225 66600.00000 0 12456994.721 -2144788.782 22188032.011 10 0 60225 67500.00000 0 11587167.879 479134.110 22744546.501 10 0 60225 68400.00000 0 10893655.463 3198567.538 22860523.221 10 0 60225 69300.00000 0 10395030.167 5948030.537 22533413.553 10 0 60225 70200.00000 0 10098174.124 8659837.190 21769237.329 10 0 60225 71100.00000 0 9998049.796 11266665.761 20582492.012 10 0 60225 72000.00000 0 10077987.590 13704125.954 18995898.663 10 0 60225 72900.00000 0 10310480.049 15913218.496 17039987.346 10 0 60225 73800.00000 0 10658451.138 17842584.822 14752527.704 10 0 60225 74700.00000 0 11076948.763 19450452.383 12177813.719 10 0 60225 75600.00000 0 11515190.282 20706193.158 9365814.847 10 0 60225 76500.00000 0 11918874.980 21591428.545 6371208.923 10 0 60225 77400.00000 0 12232665.324 22100632.633 3252315.262 10 0 60225 78300.00000 0 12402730.730 22241207.035 69949.053 10 0 60225 79200.00000 0 12379244.101 22033023.112 -3113779.600 10 0 60225 80100.00000 0 12118722.850 21507450.451 -6236696.910 10 0 60225 81000.00000 0 11586112.374 20705912.936 -9237800.802 10 0 60225 81900.00000 0 10756520.893 19678034.430 -12058474.071 10 0 60225 82800.00000 0 9616529.624 18479454.041 -14643649.273 10 0 60225 83700.00000 0 8165020.811 17169405.372 -16942900.533 10 0 60225 84600.00000 0 6413487.134 15808164.219 -18911439.313 10 0 60225 85500.00000 0 4385808.723 14454474.549 -20510993.568 10 0 60226 0.00000 0 2117507.234 13163063.195 -21710552.594 10 0 60226 900.00000 0 -345492.489 11982348.381 -22486963.816 10 0 60226 1800.00000 0 -2948537.354 10952440.607 -22825369.106 10 0 60226 2700.00000 0 -5630290.540 10103517.199 -22719475.577 10 0 60226 3600.00000 0 -8325056.324 9454639.218 -22171655.487 10 0 60226 4500.00000 0 -10965288.745 9013057.813 -21192875.828 10 0 60226 5400.00000 0 -13484179.225 8774036.691 -19802460.744 10 0 60226 6300.00000 0 -15818215.762 8721195.444 -18027693.109 10 0 60226 7200.00000 0 -17909608.145 8827356.516 -15903264.636 10 0 60226 8100.00000 0 -19708479.804 9055857.650 -13470586.445 10 0 60226 9000.00000 0 -21174737.119 9362272.521 -10776974.420 10 0 60226 9900.00000 0 -22279540.705 9696465.622 -7874725.781 10 0 60226 10800.00000 0 -23006319.976 10004893.982 -4820105.004 10 0 60226 11700.00000 0 -23351291.242 10233058.573 -1672258.584 10 0 60226 12600.00000 0 -23323460.084 10328002.463 1507920.740 10 0 60226 13500.00000 0 -22944109.909 10240751.255 4658959.107 10 0 60226 14400.00000 0 -22245799.488 9928594.075 7719974.496 10 0 60226 15300.00000 0 -21270912.209 9357110.171 10631836.104 10 0 60226 16200.00000 0 -20069817.867 8501856.747 13338289.138 10 0 60226 17100.00000 0 -18698723.312 7349647.628 15787024.883 10 0 60226 18000.00000 0 -17217300.829 5899369.011 17930676.817 10 0 60226 18900.00000 0 -15686191.875 4162297.337 19727725.042 10 0 60226 19800.00000 0 -14164488.859 2161904.476 21143292.733 10 0 60226 20700.00000 0 -12707298.489 -66843.827 22149820.109 10 0 60226 21600.00000 0 -11363487.026 -2478669.787 22727603.342 10 0 60226 22500.00000 0 -10173700.548 -5019599.634 22865187.930 10 0 60226 23400.00000 0 -9168742.466 -7628949.945 22559608.258 10 0 60226 24300.00000 0 -8368376.151 -10241604.820 21816467.568 10 0 60226 25200.00000 0 -7780603.462 -12790492.077 20649855.080 10 0 60226 26100.00000 0 -7401450.558 -15209157.589 19082099.845 10 0 60226 27000.00000 0 -7215271.517 -17434332.088 17143363.813 10 0 60226 27900.00000 0 -7195558.597 -19408384.039 14871079.747 10 0 60226 28800.00000 0 -7306226.632 -21081555.910 12309242.774 10 0 60226 29700.00000 0 -7503318.516 -22413889.399 9507567.675 10 0 60226 30600.00000 0 -7737060.405 -23376757.425 6520527.110 10 0 60226 31500.00000 0 -7954179.559 -23953936.805 3406289.102 10 0 60226 32400.00000 0 -8100385.785 -24142174.707 225574.725 10 0 60226 33300.00000 0 -8122909.668 -23951223.534 -2959540.743 10 0 60226 34200.00000 0 -7972987.642 -23403341.751 -6086858.167 10 0 60226 35100.00000 0 -7608185.848 -22532281.424 -9095290.339 10 0 60226 36000.00000 0 -6994461.373 -21381805.638 -11926076.813 10 0 60226 36900.00000 0 -6107870.788 -20003799.529 -14523951.667 10 0 60226 37800.00000 0 -4935851.306 -18456056.365 -16838239.373 10 0 60226 38700.00000 0 -3478018.539 -16799834.101 -18823855.670 10 0 60226 39600.00000 0 -1746446.044 -15097287.507 -20442192.757 10 0 60226 40500.00000 0 234585.610 -13408885.845 -21661871.086 10 0 60226 41400.00000 0 2429359.597 -11790926.094 -22459343.234 10 0 60226 42300.00000 0 4791980.425 -10293246.897 -22819338.830 10 0 60226 43200.00000 0 7268064.791 -8957239.031 -22735143.135 10 0 60226 44100.00000 0 9796794.051 -7814234.838 -22208705.448 10 0 60226 45000.00000 0 12313241.698 -6884342.353 -21250577.017 10 0 60226 45900.00000 0 14750878.281 -6175770.548 -19879681.540 10 0 60226 46800.00000 0 17044149.312 -5684671.071 -18122924.464 10 0 60226 47700.00000 0 19131019.207 -5395500.055 -16014650.266 10 0 60226 48600.00000 0 20955376.393 -5281881.807 -13595959.553 10 0 60226 49500.00000 0 22469200.927 -5307935.413 -10913900.192 10 0 60226 50400.00000 0 23634406.283 -5430006.293 -8020548.809 10 0 60226 51300.00000 0 24424280.764 -5598728.353 -4972000.718 10 0 60226 52200.00000 0 24824470.770 -5761329.034 -1827287.704 10 0 60226 53100.00000 0 24833467.095 -5864080.017 1352755.745 10 0 60226 54000.00000 0 24462575.887 -5854790.728 4506656.610 10 0 60226 54900.00000 0 23735377.015 -5685240.355 7573476.418 10 0 60226 55800.00000 0 22686693.340 -5313447.023 10493971.786 10 0 60226 56700.00000 0 21361114.274 -4705679.532 13211721.412 10 0 60226 57600.00000 0 19811134.890 -3838127.812 15674199.310 10 0 60226 58500.00000 0 18094987.355 -2698162.197 17833775.040 10 0 60226 59400.00000 0 16274253.761 -1285128.298 19648623.054 10 0 60226 60300.00000 0 14411358.191 389356.894 21083524.848 10 0 60226 61200.00000 0 12567040.778 2301621.865 22110549.265 10 0 60226 62100.00000 0 10797917.324 4416663.840 22709598.306 10 0 60226 63000.00000 0 9154224.726 6689351.272 22868807.821 10 0 60226 63900.00000 0 7677845.257 9066058.712 22584794.752 10 0 60226 64800.00000 0 6400691.651 11486669.281 21862744.967 10 0 60226 65700.00000 0 5343520.558 13886864.478 20716338.344 10 0 60226 66600.00000 0 4515224.678 16200608.470 19167510.525 10 0 60226 67500.00000 0 3912634.293 18362725.222 17246053.696 10 0 60226 68400.00000 0 3520837.888 20311461.972 14989061.843 10 0 60226 69300.00000 0 3314009.755 21990932.048 12440229.145 10 0 60226 70200.00000 0 3256710.893 23353334.123 9649013.435 10 0 60226 71100.00000 0 3305609.033 24360853.494 6669679.779 10 0 60226 72000.00000 0 3411545.209 24987163.662 3560242.356 10 0 60226 72900.00000 0 3521858.781 25218463.081 381325.486 10 0 60226 73800.00000 0 3582871.022 25054001.464 -2805033.040 10 0 60226 74700.00000 0 3542419.939 24506071.930 -5936611.373 10 0 60226 75600.00000 0 3352336.253 23599468.433 -8952239.708 10 0 60226 76500.00000 0 2970752.741 22370431.116 -11793016.714 10 0 60226 77400.00000 0 2364146.191 20865124.697 -14403480.146 10 0 60226 78300.00000 0 1509022.933 19137715.245 -16732706.732 10 0 60226 79200.00000 0 393174.515 17248128.112 -18735318.138 10 0 60226 80100.00000 0 -983551.029 15259583.364 -20372372.222 10 0 60226 81000.00000 0 -2608995.625 13236014.251 -21612121.663 10 0 60226 81900.00000 0 -4458966.185 11239478.673 -22430625.313 10 0 60226 82800.00000 0 -6498026.214 9327673.245 -22812201.058 10 0 60226 83700.00000 0 -8680769.973 7551654.350 -22749712.621 10 0 60226 84600.00000 0 -10953524.852 5953860.940 -22244686.282 10 0 60226 85500.00000 0 -13256409.700 4566520.363 -21307257.089 10 0 60227 0.00000 0 -15525662.165 3410501.760 -19955947.558 10 0 60227 900.00000 0 -17696138.640 2494661.568 -18217284.174 10 0 60227 1800.00000 0 -19703879.583 1815706.878 -16125262.626 10 0 60227 2700.00000 0 -21488637.791 1358576.981 -13720671.057 10 0 60227 3600.00000 0 -22996262.288 1097325.614 -11050287.156 10 0 60227 4500.00000 0 -24180841.093 996463.479 -8165964.654 10 0 60227 5400.00000 0 -25006515.150 1012702.579 -5123627.320 10 0 60227 6300.00000 0 -25448889.741 1097027.547 -1982189.815 10 0 60227 7200.00000 0 -25495986.449 1197006.062 1197574.066 10 0 60227 8100.00000 0 -25148697.765 1259240.934 4354194.598 10 0 60227 9000.00000 0 -24420726.803 1231861.099 7426679.329 10 0 60227 9900.00000 0 -23338015.613 1066947.392 10355674.757 10 0 60227 10800.00000 0 -21937686.330 722792.013 13084595.503 10 0 60227 11700.00000 0 -20266539.077 165897.490 15560700.665 10 0 60227 12600.00000 0 -18379168.419 -627368.279 17736098.080 10 0 60227 13500.00000 0 -16335775.495 -1669530.320 19568658.530 10 0 60227 14400.00000 0 -14199765.154 -2961230.890 21022823.525 10 0 60227 15300.00000 0 -12035226.208 -4490953.574 22070291.878 10 0 60227 16200.00000 0 -9904397.636 -6235260.777 22690572.382 10 0 60227 17100.00000 0 -7865224.389 -8159537.325 22871391.824 10 0 60227 18000.00000 0 -5969103.100 -10219212.233 22608949.891 10 0 60227 18900.00000 0 -4258910.641 -12361410.956 21908014.901 10 0 60227 19800.00000 0 -2767397.322 -14526972.415 20781856.868 10 0 60227 20700.00000 0 -1516012.039 -16652749.508 19252017.171 10 0 60227 21600.00000 0 -514209.176 -18674099.302 17347917.065 10 0 60227 22500.00000 0 240732.650 -20527460.347 15106310.290 10 0 60227 23400.00000 0 763371.164 -22152909.811 12570588.333 10 0 60227 24300.00000 0 1079253.473 -23496592.974 9789950.069 10 0 60227 25200.00000 0 1223596.413 -24512921.981 6818450.740 10 0 60227 26100.00000 0 1239549.629 -25166449.672 3713948.270 10 0 60227 27000.00000 0 1176115.141 -25433337.476 536967.669 10 0 60227 27900.00000 0 1085812.582 -25302353.321 -2650493.431 10 0 60227 28800.00000 0 1022190.806 -24775355.467 -5786193.209 10 0 60227 29700.00000 0 1037293.707 -23867240.357 -8808882.068 10 0 60227 30600.00000 0 1179190.452 -22605355.828 -11659520.616 10 0 60227 31500.00000 0 1489677.631 -21028404.362 -14282453.072 10 0 60227 32400.00000 0 2002253.400 -19184883.276 -16626511.094 10 0 60227 33300.00000 0 2740451.660 -17131128.793 -18646024.762 10 0 60227 34200.00000 0 3716608.453 -14929047.956 -20301719.776 10 0 60227 35100.00000 0 4931113.713 -12643635.458 -21561482.845 10 0 60227 36000.00000 0 6372180.301 -10340381.201 -22400980.446 10 0 60227 36900.00000 0 8016139.800 -8082678.413 -22804119.583 10 0 60227 37800.00000 0 9828251.882 -5929341.343 -22763342.795 10 0 60227 38700.00000 0 11763992.282 -3932336.045 -22279753.237 10 0 60227 39600.00000 0 13770764.211 -2134818.010 -21363069.191 10 0 60227 40500.00000 0 15789960.568 -569556.657 -20031410.751 10 0 60227 41400.00000 0 17759289.914 742190.107 -18310924.584 10 0 60227 42300.00000 0 19615268.620 1791307.305 -16235255.684 10 0 60227 43200.00000 0 21295775.202 2580937.285 -13844877.679 10 0 60227 44100.00000 0 22742560.764 3126075.663 -11186295.677 10 0 60227 45000.00000 0 23903611.780 3452668.847 -8311137.805 10 0 60227 45900.00000 0 24735267.973 3596253.687 -5275153.304 10 0 60227 46800.00000 0 25204008.516 3600198.390 -2137136.532 10 0 60227 47700.00000 0 25287833.711 3513619.982 1042202.674 10 0 60227 48600.00000 0 24977186.070 3389066.513 4201401.145 10 0 60227 49500.00000 0 24275373.722 3280061.483 7279415.572 10 0 60227 50400.00000 0 23198479.422 3238613.297 10216785.248 10 0 60227 51300.00000 0 21774759.383 3312793.664 12956763.332 10 0 60227 52200.00000 0 20043556.781 3544485.814 15446396.279 10 0 60227 53100.00000 0 18053774.452 3967396.375 17637532.118 10 0 60227 54000.00000 0 15861969.004 4605413.896 19487739.519 10 0 60227 54900.00000 0 13530143.825 5471383.028 20961121.192 10 0 60227 55800.00000 0 11123330.695 6566346.439 22029006.764 10 0 60227 56700.00000 0 8707058.305 7879287.706 22670512.308 10 0 60227 57600.00000 0 6344810.737 9387388.119 22872955.672 10 0 60227 58500.00000 0 4095579.769 11056789.328 22632119.036 10 0 60227 59400.00000 0 2011611.377 12843833.074 21952352.529 10 0 60227 60300.00000 0 136439.371 14696729.362 20846515.268 10 0 60227 61200.00000 0 -1496712.059 16557586.344 19335752.967 10 0 60227 62100.00000 0 -2866089.939 18364719.561 17449114.193 10 0 60227 63000.00000 0 -3962088.860 20055145.760 15223010.396 10 0 60227 63900.00000 0 -4787412.686 21567157.743 12700528.077 10 0 60227 64800.00000 0 -5356713.702 22842872.318 9930604.683 10 0 60227 65700.00000 0 -5695723.456 23830643.442 6967083.024 10 0 60227 66600.00000 0 -5839911.389 24487237.453 3867662.071 10 0 60227 67500.00000 0 -5832727.968 24779676.624 692764.783 10 0 60227 68400.00000 0 -5723507.361 24686670.926 -2495654.112 10 0 60227 69300.00000 0 -5565119.924 24199575.221 -5635335.522 10 0 60227 70200.00000 0 -5411476.050 23322829.508 -8664952.640 10 0 60227 71100.00000 0 -5314989.718 22073862.172 -11525330.428 10 0 60227 72000.00000 0 -5324112.030 20482459.603 -14160621.767 10 0 60227 72900.00000 0 -5481041.950 18589628.791 -16519415.194 10 0 60227 73800.00000 0 -5819713.629 16446001.517 -18555750.873 10 0 60227 74700.00000 0 -6364147.358 14109848.493 -20230023.751 10 0 60227 75600.00000 0 -7127235.105 11644788.431 -21509755.692 10 0 60227 76500.00000 0 -8110012.458 9117289.625 -22370221.648 10 0 60227 77400.00000 0 -9301447.514 6594070.021 -22794918.294 10 0 60227 78300.00000 0 -10678754.923 4139505.282 -22775867.216 10 0 60227 79200.00000 0 -12208220.765 1813153.200 -22313748.314 10 0 60227 80100.00000 0 -13846502.338 -332502.859 -21417862.585 10 0 60227 81000.00000 0 -15542347.013 -2253998.895 -20105926.908 10 0 60227 81900.00000 0 -17238657.029 -3918444.718 -18403706.559 10 0 60227 82800.00000 0 -18874812.966 -5304625.899 -16344494.243 10 0 60227 83700.00000 0 -20389158.320 -6403610.485 -13968447.067 10 0 60227 84600.00000 0 -21721541.367 -7218838.573 -11321795.323 10 0 60227 85500.00000 0 -22815808.621 -7765694.300 -8455939.123 99